GEC8223 MMMY-EDDF

Flight info

Callsign GEC8223
Flight time N/A
Altitude 41000
Route OVEMA1A OVEMA J29 PSX J22 LCH Q24 IRUBE DCT CATLN Q64 SAWED Q108 BYSEL DCT RADDS DCT SIE DCT RBV Q22 FOXWD DCT EBONY N567B TUDEP/M082F400 DCT 52N050W 54N040W 55N030W 55N020W DCT DOGAL DCT BEXET/N0480F410 DCT LIFFY UL975 WAL M16 DOLAS DCT NAVPI DCT NOLRU DCT DIXAT DIXAT1B
Aircraft B77L/H-SDE2E3FGHIJ1J3J4J5M1P2RWXYZ/LB1D1

Departure

Time 2026-05-07 18:02
Airport Monterrey International Airport (MMMY)

Arrival

Time N/A
Airport Frankfurt Main Airport (EDDF)
Time Latitude Longitude Altitude Speed Heading
2026-05-07 17:21 25.78115 -100.11745 1285 ft 0 kts 31°
2026-05-07 17:50 25.78097 -100.11757 1291 ft 4 kts 26°
2026-05-07 17:50 25.78085 -100.11762 1289 ft 2 kts 346°
2026-05-07 17:51 25.78075 -100.11756 1291 ft 2 kts 307°
2026-05-07 17:51 25.78069 -100.11746 1291 ft 2 kts 302°
2026-05-07 17:51 25.78067 -100.11743 1291 ft 0 kts 302°
2026-05-07 17:56 25.78080 -100.11772 1288 ft 8 kts 290°
2026-05-07 17:56 25.78118 -100.11842 1288 ft 12 kts 324°
2026-05-07 17:56 25.78202 -100.11854 1288 ft 14 kts 12°
2026-05-07 17:57 25.78244 -100.11805 1288 ft 7 kts 95°
2026-05-07 17:57 25.78229 -100.11769 1289 ft 8 kts 122°
2026-05-07 17:57 25.78175 -100.11679 1290 ft 13 kts 122°
2026-05-07 17:57 25.78121 -100.11583 1289 ft 16 kts 122°
2026-05-07 17:58 25.78061 -100.11496 1287 ft 10 kts 154°
2026-05-07 17:58 25.78014 -100.11520 1288 ft 8 kts 247°
2026-05-07 17:58 25.78002 -100.11577 1291 ft 7 kts 228°
2026-05-07 17:58 25.77965 -100.11570 1291 ft 6 kts 129°
2026-05-07 17:59 25.77977 -100.11533 1288 ft 6 kts 37°
2026-05-07 17:59 25.78025 -100.11501 1288 ft 10 kts 31°
2026-05-07 17:59 25.78068 -100.11493 1290 ft 5 kts 335°
2026-05-07 17:59 25.78094 -100.11534 1291 ft 9 kts 301°
2026-05-07 18:00 25.78137 -100.11614 1290 ft 15 kts 301°
2026-05-07 18:00 25.78202 -100.11732 1290 ft 20 kts 303°
2026-05-07 18:00 25.78239 -100.11798 1287 ft 8 kts 310°
2026-05-07 18:00 25.78297 -100.11788 1286 ft 8 kts 33°
2026-05-07 18:01 25.78332 -100.11765 1290 ft 10 kts 30°
2026-05-07 18:01 25.78396 -100.11718 1291 ft 9 kts 49°
2026-05-07 18:01 25.78388 -100.11660 1289 ft 9 kts 123°
2026-05-07 18:01 25.78319 -100.11533 1289 ft 44 kts 121°
2026-05-07 18:02 25.77421 -100.09918 1594 ft 169 kts 122°
2026-05-07 18:02 25.76815 -100.08785 2535 ft 168 kts 120°
2026-05-07 18:02 25.76213 -100.07638 3408 ft 175 kts 118°
2026-05-07 18:03 25.75561 -100.06383 3895 ft 204 kts 118°
2026-05-07 18:03 25.74791 -100.04898 4186 ft 241 kts 118°
2026-05-07 18:03 25.73906 -100.03195 4804 ft 262 kts 118°
2026-05-07 18:03 25.72973 -100.01403 5742 ft 272 kts 118°
2026-05-07 18:04 25.72015 -99.99561 6691 ft 279 kts 119°
2026-05-07 18:04 25.71034 -99.97673 7629 ft 285 kts 120°
2026-05-07 18:04 25.70284 -99.95642 8408 ft 292 kts 97°
2026-05-07 18:04 25.70536 -99.93398 9268 ft 299 kts 67°
2026-05-07 18:05 25.71724 -99.91503 10191 ft 304 kts 40°
2026-05-07 18:05 25.73606 -99.90344 10705 ft 322 kts 15°
2026-05-07 18:05 25.75911 -99.89925 10908 ft 351 kts
2026-05-07 18:05 25.78425 -99.89989 11339 ft 369 kts 353°
2026-05-07 18:06 25.81001 -99.90399 12029 ft 379 kts 346°
2026-05-07 18:06 25.83572 -99.91177 12836 ft 385 kts 338°
2026-05-07 18:06 25.86052 -99.92293 13575 ft 385 kts 337°
2026-05-07 18:06 25.88752 -99.92744 14084 ft 404 kts
2026-05-07 18:07 25.91482 -99.91931 14890 ft 412 kts 24°
2026-05-07 18:07 25.93902 -99.90198 15776 ft 417 kts 40°
2026-05-07 18:07 25.95917 -99.87922 16581 ft 422 kts 48°
2026-05-07 18:07 25.97889 -99.85471 17338 ft 429 kts 48°
2026-05-07 18:08 25.99939 -99.82956 18125 ft 436 kts 48°
2026-05-07 18:08 26.01967 -99.80481 18838 ft 441 kts 47°
2026-05-07 18:08 26.04046 -99.77942 19523 ft 447 kts 47°
2026-05-07 18:08 26.06177 -99.75338 20237 ft 452 kts 47°
2026-05-07 18:09 26.08278 -99.72767 20884 ft 458 kts 47°
2026-05-07 18:09 26.10435 -99.70127 21559 ft 464 kts 47°
2026-05-07 18:09 26.12619 -99.67455 22262 ft 469 kts 47°
2026-05-07 18:09 26.14827 -99.64753 22963 ft 475 kts 47°
2026-05-07 18:10 26.17059 -99.62021 23631 ft 480 kts 47°
2026-05-07 18:10 26.19321 -99.59251 24181 ft 486 kts 47°
2026-05-07 18:10 26.21606 -99.56451 24731 ft 491 kts 47°
2026-05-07 18:10 26.23913 -99.53621 25292 ft 496 kts 47°
2026-05-07 18:11 26.26248 -99.50756 25858 ft 502 kts 47°
2026-05-07 18:11 26.28605 -99.47861 26399 ft 508 kts 47°
2026-05-07 18:11 26.30989 -99.44930 26947 ft 513 kts 47°
2026-05-07 18:11 26.33400 -99.41965 27505 ft 519 kts 47°
2026-05-07 18:12 26.35835 -99.38968 28061 ft 524 kts 47°
2026-05-07 18:12 26.38294 -99.35938 28626 ft 529 kts 47°
2026-05-07 18:12 26.40780 -99.32875 29186 ft 535 kts 47°
2026-05-07 18:12 26.43286 -99.29785 29738 ft 540 kts 47°
2026-05-07 18:13 26.45843 -99.26679 30246 ft 545 kts 45°
2026-05-07 18:13 26.48503 -99.23644 30729 ft 549 kts 44°
2026-05-07 18:13 26.51216 -99.20621 31188 ft 553 kts 44°
2026-05-07 18:13 26.53924 -99.17565 31735 ft 554 kts 44°
2026-05-07 18:14 26.56587 -99.14454 32366 ft 553 kts 46°
2026-05-07 18:14 26.59170 -99.11282 33044 ft 551 kts 47°
2026-05-07 18:14 26.61707 -99.08083 33683 ft 550 kts 47°
2026-05-07 18:14 26.64228 -99.04876 34244 ft 549 kts 47°
2026-05-07 18:15 26.66747 -99.01675 34738 ft 549 kts 47°
2026-05-07 18:15 26.69273 -98.98482 35225 ft 548 kts 46°
2026-05-07 18:15 26.71809 -98.95294 35713 ft 548 kts 46°
2026-05-07 18:15 26.74347 -98.92115 36196 ft 547 kts 46°
2026-05-07 18:16 26.76884 -98.88944 36678 ft 547 kts 46°
2026-05-07 18:16 26.79387 -98.85816 37150 ft 546 kts 45°
2026-05-07 18:16 26.81920 -98.82647 37638 ft 546 kts 45°
2026-05-07 18:16 26.84452 -98.79477 38116 ft 545 kts 45°
2026-05-07 18:17 26.86974 -98.76314 38607 ft 544 kts 45°
2026-05-07 18:17 26.89491 -98.73155 38973 ft 544 kts 45°
2026-05-07 18:17 26.92022 -98.69976 39022 ft 550 kts 45°
2026-05-07 18:18 26.97108 -98.63577 39018 ft 547 kts 45°
2026-05-07 18:18 27.02132 -98.57243 39013 ft 541 kts 45°
2026-05-07 18:19 27.07126 -98.50943 39019 ft 540 kts 45°
2026-05-07 18:19 27.12116 -98.44640 39024 ft 540 kts 45°
2026-05-07 18:20 27.17104 -98.38331 39025 ft 541 kts 45°
2026-05-07 18:20 27.22108 -98.31991 39027 ft 543 kts 45°
2026-05-07 18:21 27.27091 -98.25665 38999 ft 532 kts 45°
2026-05-07 18:21 27.29508 -98.22588 39002 ft 517 kts 45°
2026-05-07 18:21 27.31865 -98.19586 39009 ft 510 kts 45°
2026-05-07 18:22 27.36558 -98.13619 39033 ft 509 kts 45°
2026-05-07 18:22 27.41253 -98.07644 39051 ft 510 kts 45°
2026-05-07 18:23 27.45950 -98.01653 39047 ft 511 kts 45°
2026-05-07 18:23 27.50649 -97.95647 39049 ft 511 kts 45°
2026-05-07 18:24 27.55353 -97.89627 39052 ft 512 kts 45°
2026-05-07 18:24 27.60060 -97.83595 39048 ft 513 kts 45°
2026-05-07 18:25 27.64771 -97.77548 39038 ft 513 kts 45°
2026-05-07 18:25 27.69483 -97.71492 39053 ft 513 kts 45°
2026-05-07 18:26 27.74192 -97.65431 39056 ft 513 kts 45°
2026-05-07 18:26 27.78891 -97.59374 39060 ft 513 kts 45°
2026-05-07 18:27 27.83587 -97.53313 39049 ft 513 kts 45°
2026-05-07 18:27 27.88281 -97.47245 39040 ft 512 kts 45°
2026-05-07 18:28 27.92934 -97.41211 39036 ft 512 kts 46°
2026-05-07 18:28 27.97593 -97.35118 39025 ft 512 kts 46°
2026-05-07 18:29 28.02251 -97.29010 39028 ft 512 kts 46°
2026-05-07 18:29 28.06906 -97.22902 39041 ft 512 kts 46°
2026-05-07 18:30 28.11556 -97.16796 39046 ft 513 kts 46°
2026-05-07 18:30 28.16222 -97.10660 39045 ft 513 kts 46°
2026-05-07 18:31 28.20882 -97.04523 39040 ft 514 kts 46°
2026-05-07 18:31 28.25548 -96.98368 39042 ft 515 kts 46°
2026-05-07 18:32 28.30210 -96.92210 39031 ft 515 kts 46°
2026-05-07 18:32 28.34876 -96.86037 39029 ft 515 kts 46°
2026-05-07 18:33 28.39544 -96.79852 39028 ft 516 kts 46°
2026-05-07 18:33 28.44210 -96.73653 39032 ft 516 kts 46°
2026-05-07 18:34 28.48870 -96.67448 39036 ft 516 kts 46°
2026-05-07 18:34 28.53530 -96.61233 39043 ft 516 kts 46°
2026-05-07 18:35 28.58190 -96.55011 39039 ft 517 kts 46°
2026-05-07 18:35 28.62847 -96.48782 39037 ft 517 kts 46°
2026-05-07 18:36 28.67505 -96.42543 39043 ft 517 kts 46°
2026-05-07 18:36 28.72154 -96.36307 39053 ft 517 kts 46°
2026-05-07 18:37 28.76597 -96.29859 39059 ft 519 kts 54°
2026-05-07 18:37 28.80107 -96.22652 39066 ft 521 kts 62°
2026-05-07 18:38 28.83310 -96.15309 39051 ft 521 kts 63°
2026-05-07 18:38 28.86547 -96.07921 39040 ft 521 kts 62°
2026-05-07 18:39 28.89817 -96.00549 39018 ft 521 kts 62°
2026-05-07 18:39 28.93092 -95.93194 39018 ft 520 kts 62°
2026-05-07 18:40 28.96369 -95.85821 39020 ft 520 kts 62°
2026-05-07 18:40 28.99637 -95.78447 39018 ft 520 kts 62°
2026-05-07 18:41 29.02900 -95.71066 39022 ft 520 kts 62°
2026-05-07 18:41 29.06156 -95.63689 39043 ft 520 kts 62°
2026-05-07 18:42 29.09410 -95.56301 39042 ft 520 kts 62°
2026-05-07 18:42 29.12659 -95.48912 39044 ft 521 kts 62°
2026-05-07 18:43 29.15909 -95.41508 39046 ft 520 kts 62°
2026-05-07 18:43 29.19153 -95.34102 39044 ft 520 kts 62°
2026-05-07 18:44 29.22394 -95.26688 39044 ft 520 kts 62°
2026-05-07 18:44 29.25628 -95.19278 39050 ft 520 kts 62°
2026-05-07 18:45 29.28860 -95.11857 39053 ft 521 kts 62°
2026-05-07 18:45 29.32089 -95.04431 39056 ft 521 kts 62°
2026-05-07 18:46 29.35313 -94.97000 39065 ft 521 kts 62°
2026-05-07 18:46 29.38534 -94.89563 39063 ft 521 kts 62°
2026-05-07 18:47 29.41750 -94.82121 39058 ft 521 kts 62°
2026-05-07 18:47 29.44422 -94.75930 39053 ft 521 kts 62°
2026-05-07 18:48 29.48154 -94.67264 39043 ft 521 kts 62°
2026-05-07 18:48 29.51356 -94.59812 39039 ft 521 kts 62°
2026-05-07 18:49 29.54041 -94.53553 39035 ft 521 kts 62°
2026-05-07 18:49 29.57240 -94.46082 39035 ft 521 kts 62°
2026-05-07 18:50 29.60437 -94.38601 39036 ft 522 kts 62°
2026-05-07 18:50 29.63606 -94.31172 39044 ft 522 kts 62°
2026-05-07 18:51 29.66800 -94.23673 39035 ft 522 kts 62°
2026-05-07 18:51 29.69991 -94.16169 39038 ft 522 kts 62°
2026-05-07 18:52 29.73178 -94.08658 39038 ft 522 kts 63°
2026-05-07 18:52 29.76362 -94.01139 39036 ft 523 kts 63°
2026-05-07 18:53 29.79543 -93.93610 39041 ft 523 kts 63°
2026-05-07 18:53 29.82720 -93.86075 39042 ft 523 kts 63°
2026-05-07 18:54 29.85895 -93.78534 39055 ft 524 kts 63°
2026-05-07 18:54 29.89068 -93.70980 39059 ft 524 kts 63°
2026-05-07 18:55 29.92235 -93.63423 39061 ft 524 kts 63°
2026-05-07 18:55 29.95399 -93.55860 39065 ft 523 kts 63°
2026-05-07 18:56 29.98557 -93.48297 39058 ft 524 kts 63°
2026-05-07 18:56 30.01712 -93.40725 39053 ft 523 kts 63°
2026-05-07 18:57 30.04862 -93.33151 39056 ft 524 kts 63°
2026-05-07 18:57 30.08006 -93.25573 39048 ft 524 kts 63°
2026-05-07 18:58 30.11152 -93.17979 39046 ft 524 kts 63°
2026-05-07 18:58 30.14083 -93.10335 39083 ft 525 kts 70°
2026-05-07 18:59 30.15981 -93.02205 39073 ft 524 kts 78°
2026-05-07 18:59 30.17531 -92.93913 39062 ft 525 kts 79°
2026-05-07 19:00 30.19083 -92.85675 39068 ft 525 kts 78°
2026-05-07 19:00 30.20672 -92.77434 39048 ft 525 kts 78°
2026-05-07 19:01 30.22273 -92.69197 39047 ft 525 kts 78°
2026-05-07 19:01 30.23868 -92.60957 39047 ft 525 kts 78°
2026-05-07 19:02 30.25446 -92.52764 39050 ft 525 kts 78°
2026-05-07 19:02 30.27026 -92.44517 39050 ft 525 kts 78°
2026-05-07 19:03 30.28600 -92.36277 39043 ft 525 kts 78°
2026-05-07 19:03 30.30171 -92.28018 39041 ft 525 kts 78°
2026-05-07 19:04 30.31738 -92.19758 39039 ft 525 kts 78°
2026-05-07 19:04 30.33299 -92.11493 39042 ft 526 kts 78°
2026-05-07 19:05 30.34859 -92.03210 39056 ft 527 kts 78°
2026-05-07 19:05 30.36415 -91.94912 39048 ft 528 kts 78°
2026-05-07 19:06 30.37969 -91.86594 39033 ft 529 kts 78°
2026-05-07 19:06 30.40291 -91.74113 39038 ft 528 kts 78°
2026-05-07 19:07 30.41832 -91.65789 39040 ft 528 kts 78°
2026-05-07 19:07 30.43367 -91.57465 39037 ft 528 kts 78°
2026-05-07 19:08 30.44896 -91.49145 39041 ft 528 kts 78°
2026-05-07 19:08 30.46420 -91.40816 39043 ft 528 kts 78°
2026-05-07 19:09 30.47940 -91.32486 39040 ft 528 kts 78°
2026-05-07 19:09 30.49618 -91.24190 39040 ft 528 kts 75°
2026-05-07 19:10 30.51529 -91.15971 39046 ft 528 kts 74°
2026-05-07 19:10 30.53449 -91.07804 39046 ft 528 kts 75°
2026-05-07 19:11 30.55353 -90.99550 39107 ft 532 kts 75°
2026-05-07 19:11 30.56300 -90.95398 39426 ft 534 kts 75°
2026-05-07 19:11 30.57245 -90.91236 39875 ft 532 kts 75°
2026-05-07 19:12 30.58185 -90.87088 40270 ft 532 kts 75°
2026-05-07 19:12 30.59125 -90.82933 40591 ft 533 kts 75°
2026-05-07 19:12 30.60069 -90.78761 40842 ft 536 kts 75°
2026-05-07 19:12 30.61018 -90.74559 40967 ft 542 kts 75°
2026-05-07 19:13 30.62947 -90.66007 41029 ft 551 kts 75°
2026-05-07 19:13 30.64868 -90.57456 41013 ft 542 kts 75°
2026-05-07 19:14 30.66759 -90.49014 41021 ft 539 kts 75°
2026-05-07 19:14 30.68638 -90.40596 41030 ft 539 kts 75°
2026-05-07 19:15 30.70517 -90.32155 41037 ft 540 kts 75°
2026-05-07 19:15 30.72392 -90.23699 41032 ft 541 kts 75°
2026-05-07 19:16 30.74266 -90.15223 41039 ft 542 kts 75°
2026-05-07 19:16 30.76156 -90.06647 41060 ft 555 kts 75°
2026-05-07 19:17 30.78090 -89.97839 41059 ft 568 kts 75°
2026-05-07 19:17 30.80039 -89.88932 41046 ft 568 kts 75°
2026-05-07 19:18 30.81964 -89.80098 41038 ft 566 kts 75°
2026-05-07 19:18 30.82921 -89.75695 41022 ft 555 kts 75°
2026-05-07 19:18 30.83855 -89.71389 41021 ft 543 kts 75°
2026-05-07 19:19 30.85696 -89.62883 41027 ft 541 kts 75°
2026-05-07 19:19 30.87528 -89.54396 41028 ft 540 kts 75°
2026-05-07 19:20 30.89353 -89.45911 41021 ft 540 kts 75°
2026-05-07 19:20 30.91171 -89.37427 41018 ft 540 kts 75°
2026-05-07 19:21 30.92984 -89.28940 41031 ft 544 kts 75°
2026-05-07 19:21 30.94833 -89.20258 41039 ft 560 kts 75°
2026-05-07 19:22 30.96719 -89.11361 41033 ft 568 kts 75°
2026-05-07 19:22 30.98610 -89.02408 41021 ft 569 kts 75°
2026-05-07 19:23 31.00494 -88.93461 41019 ft 568 kts 75°
2026-05-07 19:23 31.02472 -88.84579 41018 ft 564 kts 73°
2026-05-07 19:24 31.04515 -88.75763 41017 ft 562 kts 73°
2026-05-07 19:24 31.06523 -88.67028 40993 ft 548 kts 74°
2026-05-07 19:25 31.08448 -88.58529 41026 ft 540 kts 74°
2026-05-07 19:25 31.10354 -88.50065 41027 ft 539 kts 74°
2026-05-07 19:26 31.12255 -88.41597 41027 ft 539 kts 74°
2026-05-07 19:26 31.14151 -88.33131 41022 ft 539 kts 74°
2026-05-07 19:27 31.16041 -88.24664 41030 ft 539 kts 74°
2026-05-07 19:27 31.17925 -88.16194 41023 ft 539 kts 74°
2026-05-07 19:28 31.19805 -88.07718 41028 ft 539 kts 74°
2026-05-07 19:28 31.21681 -87.99228 41022 ft 540 kts 74°
2026-05-07 19:29 31.23551 -87.90735 41026 ft 540 kts 74°
2026-05-07 19:29 31.25418 -87.82231 41022 ft 540 kts 74°
2026-05-07 19:30 31.27278 -87.73726 41017 ft 541 kts 74°
2026-05-07 19:30 31.29129 -87.65259 41007 ft 541 kts 73°
2026-05-07 19:31 31.31747 -87.57077 41019 ft 536 kts 60°
2026-05-07 19:31 31.35420 -87.49565 41021 ft 529 kts 51°
2026-05-07 19:32 31.39572 -87.42474 41005 ft 528 kts 50°
2026-05-07 19:32 31.43742 -87.35393 41009 ft 528 kts 50°
2026-05-07 19:33 31.47878 -87.28271 41006 ft 529 kts 50°
2026-05-07 19:33 31.51989 -87.21121 41012 ft 529 kts 50°
2026-05-07 19:34 31.56094 -87.13957 41009 ft 529 kts 50°
2026-05-07 19:34 31.60201 -87.06783 41006 ft 530 kts 50°
2026-05-07 19:35 31.64302 -86.99609 40995 ft 530 kts 50°
2026-05-07 19:35 31.68408 -86.92416 40983 ft 530 kts 50°
2026-05-07 19:36 31.71844 -86.86385 40978 ft 531 kts 50°
2026-05-07 19:36 31.75943 -86.79180 40983 ft 531 kts 51°
2026-05-07 19:37 31.80017 -86.72003 41002 ft 531 kts 51°
2026-05-07 19:37 31.84115 -86.64772 41001 ft 532 kts 51°
2026-05-07 19:38 31.88209 -86.57531 41004 ft 532 kts 51°
2026-05-07 19:38 31.92301 -86.50282 40993 ft 531 kts 51°
2026-05-07 19:39 31.96384 -86.43034 40987 ft 531 kts 51°
2026-05-07 19:39 32.00461 -86.35784 40984 ft 531 kts 51°
2026-05-07 19:40 32.04536 -86.28525 40990 ft 531 kts 51°
2026-05-07 19:40 32.08603 -86.21265 40994 ft 531 kts 51°
2026-05-07 19:41 32.12669 -86.13993 40991 ft 531 kts 51°
2026-05-07 19:41 32.16730 -86.06718 40993 ft 531 kts 51°
2026-05-07 19:42 32.20790 -85.99429 40984 ft 532 kts 51°
2026-05-07 19:42 32.24853 -85.92121 40982 ft 532 kts 51°
2026-05-07 19:43 32.28912 -85.84807 40979 ft 533 kts 51°
2026-05-07 19:43 32.32972 -85.77474 40979 ft 533 kts 51°
2026-05-07 19:44 32.37034 -85.70125 40980 ft 534 kts 51°
2026-05-07 19:44 32.41098 -85.62759 40985 ft 535 kts 51°
2026-05-07 19:45 32.45136 -85.55425 40994 ft 536 kts 51°
2026-05-07 19:45 32.49198 -85.48031 40998 ft 536 kts 51°
2026-05-07 19:46 32.53262 -85.40620 41004 ft 537 kts 51°
2026-05-07 19:46 32.57327 -85.33194 41005 ft 537 kts 51°
2026-05-07 19:47 32.61387 -85.25762 40995 ft 537 kts 51°
2026-05-07 19:47 32.65447 -85.18314 40981 ft 537 kts 51°
2026-05-07 19:48 32.69502 -85.10860 40966 ft 537 kts 51°
2026-05-07 19:48 32.73551 -85.03403 40984 ft 537 kts 51°
2026-05-07 19:49 32.77598 -84.95936 40974 ft 538 kts 51°
2026-05-07 19:49 32.81643 -84.88455 40981 ft 538 kts 51°
2026-05-07 19:50 32.85682 -84.80972 40980 ft 538 kts 51°
2026-05-07 19:50 32.89729 -84.73460 40974 ft 539 kts 51°
2026-05-07 19:51 32.93769 -84.65945 40969 ft 539 kts 51°
2026-05-07 19:51 32.97799 -84.58432 40957 ft 539 kts 51°
2026-05-07 19:52 33.01833 -84.50897 40955 ft 539 kts 52°
2026-05-07 19:52 33.05866 -84.43349 40951 ft 540 kts 52°
2026-05-07 19:53 33.09899 -84.35784 40966 ft 540 kts 52°
2026-05-07 19:53 33.13926 -84.28217 40978 ft 541 kts 52°
2026-05-07 19:54 33.17959 -84.20622 40983 ft 541 kts 52°
2026-05-07 19:54 33.21959 -84.13073 40979 ft 542 kts 52°
2026-05-07 19:55 33.25983 -84.05463 40971 ft 542 kts 52°
2026-05-07 19:55 33.30004 -83.97843 40956 ft 542 kts 52°
2026-05-07 19:56 33.34023 -83.90212 40946 ft 542 kts 52°
2026-05-07 19:56 33.38032 -83.82583 40950 ft 542 kts 52°
2026-05-07 19:57 33.42040 -83.74941 40947 ft 542 kts 52°
2026-05-07 19:57 33.46038 -83.67302 40947 ft 542 kts 52°
2026-05-07 19:58 33.50038 -83.59642 40949 ft 542 kts 52°
2026-05-07 19:58 33.54032 -83.51979 40941 ft 543 kts 52°
2026-05-07 19:59 33.58033 -83.44285 40940 ft 544 kts 52°
2026-05-07 19:59 33.62032 -83.36579 40944 ft 544 kts 52°
2026-05-07 20:00 33.66029 -83.28860 40932 ft 545 kts 52°
2026-05-07 20:00 33.70026 -83.21124 40943 ft 545 kts 52°
2026-05-07 20:01 33.74022 -83.13375 40933 ft 546 kts 52°
2026-05-07 20:01 33.78015 -83.05613 40933 ft 546 kts 52°
2026-05-07 20:02 33.82007 -82.97836 40922 ft 546 kts 52°
2026-05-07 20:02 33.85966 -82.90107 40924 ft 547 kts 52°
2026-05-07 20:03 33.89980 -82.82341 40916 ft 546 kts 51°
2026-05-07 20:03 33.94068 -82.74639 40916 ft 546 kts 51°
2026-05-07 20:04 33.98161 -82.66928 40920 ft 546 kts 51°
2026-05-07 20:04 34.02239 -82.59189 40908 ft 547 kts 51°
2026-05-07 20:05 34.06311 -82.51428 40898 ft 548 kts 51°
2026-05-07 20:05 34.10369 -82.43675 40885 ft 549 kts 51°
2026-05-07 20:06 34.14456 -82.35853 40890 ft 550 kts 51°
2026-05-07 20:06 34.18532 -82.28036 40898 ft 550 kts 51°
2026-05-07 20:07 34.22609 -82.20200 40902 ft 551 kts 51°
2026-05-07 20:07 34.26679 -82.12338 40899 ft 552 kts 52°
2026-05-07 20:08 34.30679 -82.04410 40897 ft 553 kts 52°
2026-05-07 20:08 34.34664 -81.96438 40886 ft 554 kts 52°
2026-05-07 20:09 34.38654 -81.88465 40876 ft 554 kts 52°
2026-05-07 20:10 34.44650 -81.76483 40873 ft 554 kts 52°
2026-05-07 20:10 34.48637 -81.68494 40897 ft 554 kts 52°
2026-05-07 20:11 34.52616 -81.60501 40889 ft 554 kts 52°
2026-05-07 20:11 34.56589 -81.52502 40872 ft 554 kts 52°
2026-05-07 20:12 34.60558 -81.44493 40864 ft 554 kts 52°
2026-05-07 20:12 34.64520 -81.36479 40876 ft 553 kts 52°
2026-05-07 20:13 34.68476 -81.28459 40876 ft 553 kts 53°
2026-05-07 20:13 34.72426 -81.20433 40910 ft 553 kts 53°
2026-05-07 20:14 34.76374 -81.12392 40890 ft 554 kts 53°
2026-05-07 20:14 34.80221 -81.04337 40897 ft 557 kts 58°
2026-05-07 20:15 34.83484 -80.95738 40884 ft 561 kts 62°
2026-05-07 20:15 34.86609 -80.87034 40883 ft 562 kts 62°
2026-05-07 20:16 34.89761 -80.78333 40881 ft 562 kts 61°
2026-05-07 20:16 34.92957 -80.69620 40861 ft 563 kts 61°
2026-05-07 20:17 34.96159 -80.60900 40856 ft 564 kts 61°
2026-05-07 20:17 34.99355 -80.52158 40860 ft 565 kts 61°
2026-05-07 20:18 35.02543 -80.43401 40858 ft 565 kts 61°
2026-05-07 20:18 35.05727 -80.34628 40853 ft 565 kts 62°
2026-05-07 20:19 35.08900 -80.25865 40850 ft 564 kts 62°
2026-05-07 20:19 35.12062 -80.17108 40853 ft 563 kts 62°
2026-05-07 20:20 35.15219 -80.08342 40847 ft 563 kts 62°
2026-05-07 20:20 35.18359 -79.99599 40853 ft 562 kts 62°
2026-05-07 20:21 35.21499 -79.90833 40867 ft 563 kts 62°
2026-05-07 20:21 35.24640 -79.82040 40833 ft 566 kts 62°
2026-05-07 20:22 35.27794 -79.73179 40846 ft 567 kts 62°
2026-05-07 20:22 35.30933 -79.64331 40859 ft 566 kts 62°
2026-05-07 20:23 35.33530 -79.56992 40863 ft 565 kts 62°
2026-05-07 20:23 35.37149 -79.46741 40866 ft 563 kts 62°
2026-05-07 20:24 35.40249 -79.37937 40871 ft 563 kts 62°
2026-05-07 20:24 35.42843 -79.30549 40857 ft 562 kts 62°
2026-05-07 20:25 35.46430 -79.20304 40861 ft 564 kts 62°
2026-05-07 20:25 35.49013 -79.12903 40881 ft 562 kts 62°
2026-05-07 20:26 35.52081 -79.04087 40903 ft 562 kts 62°
2026-05-07 20:26 35.55123 -78.95324 40885 ft 562 kts 62°
2026-05-07 20:27 35.58180 -78.86494 40888 ft 561 kts 63°
2026-05-07 20:27 35.61226 -78.77672 40872 ft 561 kts 63°
2026-05-07 20:28 35.64280 -78.68856 40886 ft 560 kts 62°
2026-05-07 20:28 35.67335 -78.60038 40875 ft 561 kts 63°
2026-05-07 20:29 35.70384 -78.51196 40867 ft 562 kts 63°
2026-05-07 20:29 35.73430 -78.42337 40873 ft 562 kts 63°
2026-05-07 20:30 35.76464 -78.33454 40877 ft 563 kts 63°
2026-05-07 20:30 35.79490 -78.24540 40903 ft 564 kts 63°
2026-05-07 20:31 35.82511 -78.15623 40889 ft 565 kts 63°
2026-05-07 20:31 35.85531 -78.06684 40890 ft 564 kts 63°
2026-05-07 20:32 35.88541 -77.97752 40898 ft 564 kts 63°
2026-05-07 20:32 35.91522 -77.88877 40903 ft 564 kts 63°
2026-05-07 20:33 35.94539 -77.79871 40894 ft 564 kts 63°
2026-05-07 20:33 35.98018 -77.71375 40894 ft 553 kts 51°
2026-05-07 20:34 36.02479 -77.63774 40893 ft 540 kts 39°
2026-05-07 20:34 36.07569 -77.56983 40893 ft 537 kts 37°
2026-05-07 20:35 36.12692 -77.50253 40904 ft 539 kts 37°
2026-05-07 20:35 36.17785 -77.43434 40903 ft 541 kts 38°
2026-05-07 20:36 36.22876 -77.36546 40904 ft 542 kts 38°
2026-05-07 20:36 36.27965 -77.29658 40913 ft 543 kts 38°
2026-05-07 20:37 36.33160 -77.22902 40906 ft 536 kts 32°
2026-05-07 20:37 36.38672 -77.16720 40918 ft 534 kts 31°
2026-05-07 20:38 36.44237 -77.10606 40917 ft 535 kts 31°
2026-05-07 20:38 36.49788 -77.04438 40917 ft 537 kts 31°
2026-05-07 20:39 36.55335 -76.98208 40920 ft 538 kts 32°
2026-05-07 20:39 36.60882 -76.91949 40914 ft 538 kts 32°
2026-05-07 20:40 36.66421 -76.85689 40913 ft 538 kts 32°
2026-05-07 20:40 36.71963 -76.79420 40916 ft 537 kts 32°
2026-05-07 20:41 36.77491 -76.73155 40910 ft 537 kts 32°
2026-05-07 20:41 36.83005 -76.66893 40918 ft 537 kts 32°
2026-05-07 20:42 36.88531 -76.60606 40921 ft 537 kts 32°
2026-05-07 20:42 36.94046 -76.54318 40922 ft 537 kts 32°
2026-05-07 20:43 36.99560 -76.48018 40909 ft 537 kts 32°
2026-05-07 20:43 37.05043 -76.41741 40902 ft 538 kts 32°
2026-05-07 20:44 37.10567 -76.35403 40903 ft 539 kts 32°
2026-05-07 20:44 37.16094 -76.29048 40905 ft 540 kts 32°
2026-05-07 20:45 37.21626 -76.22675 40911 ft 541 kts 32°
2026-05-07 20:45 37.27163 -76.16282 40906 ft 541 kts 33°
2026-05-07 20:46 37.32707 -76.09868 40902 ft 542 kts 33°
2026-05-07 20:46 37.38253 -76.03437 40906 ft 543 kts 33°
2026-05-07 20:47 37.43801 -75.96989 40911 ft 543 kts 33°
2026-05-07 20:47 37.49348 -75.90531 40915 ft 544 kts 33°
2026-05-07 20:48 37.55098 -75.84482 40905 ft 531 kts 23°
2026-05-07 20:48 37.61317 -75.79703 40921 ft 521 kts 17°
2026-05-07 20:49 37.67588 -75.75121 40914 ft 521 kts 18°
2026-05-07 20:49 37.73834 -75.70449 40912 ft 522 kts 18°
2026-05-07 20:50 37.80060 -75.65734 40908 ft 522 kts 19°
2026-05-07 20:50 37.86253 -75.60919 40917 ft 526 kts 22°
2026-05-07 20:51 37.92277 -75.55692 40920 ft 529 kts 24°
2026-05-07 20:51 37.98314 -75.50374 40912 ft 529 kts 23°
2026-05-07 20:52 38.04386 -75.45094 40908 ft 529 kts 23°
2026-05-07 20:52 38.10495 -75.39975 40899 ft 526 kts 20°
2026-05-07 20:53 38.16687 -75.34996 40903 ft 527 kts 21°
2026-05-07 20:53 38.22870 -75.29966 40903 ft 525 kts 19°
2026-05-07 20:54 38.29279 -75.25910 40898 ft 504 kts
2026-05-07 20:54 38.35845 -75.22815 40906 ft 503 kts
2026-05-07 20:55 38.42425 -75.19725 40907 ft 505 kts
2026-05-07 20:55 38.49013 -75.16546 40907 ft 507 kts
2026-05-07 20:56 38.55600 -75.13333 40909 ft 507 kts
2026-05-07 20:56 38.62198 -75.10118 40895 ft 508 kts
2026-05-07 20:57 38.68736 -75.06493 40904 ft 518 kts 14°
2026-05-07 20:57 38.75181 -75.02302 40906 ft 520 kts 15°
2026-05-07 20:58 38.81619 -74.98084 40907 ft 520 kts 15°
2026-05-07 20:58 38.88029 -74.93942 40906 ft 519 kts 15°
2026-05-07 20:59 38.94495 -74.89779 40903 ft 520 kts 15°
2026-05-07 20:59 39.00959 -74.85602 40895 ft 520 kts 15°